When you browse on this site, cookies collect data to enhance your experience and personalize the content and advertising you see.
Visit our Privacy Policy to learn more. By continuing to use the site, you agree to this use of cookies and data.
  • In Romania
  • List of Countries
  • For 7 days
  • Water Temperature
  • Satellite Maps
  • Weather Map
  • Weather Widgets
  • user-avatar
    Login

    Hourly Weather Bregenz

    Today, 16 December, Sunday

    Time Temperature Precipitation Wind Pressure Humidity
    00:00 -7°C° 0 mm 1 mps 642 mmHg 56%
    01:00 -6°C° 0 mm 1 mps 642 mmHg 55%
    02:00 -6°C° 0.6 mm 1 mps 642 mmHg 64%
    03:00 -6°C° 0.6 mm 1 mps 641 mmHg 73%
    04:00 -6°C° 0.6 mm 2 mps 641 mmHg 82%
    05:00 -6°C° 1.4 mm 2 mps 641 mmHg 85%
    06:00 -5°C° 1.4 mm 2 mps 641 mmHg 89%
    07:00 -5°C° 1.4 mm 2 mps 641 mmHg 92%
    08:00 -4°C° 0.4 mm 2 mps 641 mmHg 91%
    09:00 -3°C° 0.4 mm 2 mps 641 mmHg 91%
    10:00 -2°C° 0.4 mm 2 mps 642 mmHg 91%
    11:00 -2°C° 0.1 mm 2 mps 642 mmHg 91%
    12:00 -1°C° 0.1 mm 2 mps 642 mmHg 91%
    13:00 +2°C° 0.1 mm 1 mps 642 mmHg 92%
    14:00 +1°C° 0.1 mm 1 mps 642 mmHg 93%
    15:00 +1°C° 0.1 mm 1 mps 642 mmHg 94%
    16:00 0°C° 0.1 mm 1 mps 642 mmHg 95%
    17:00 0°C° 0.3 mm 1 mps 642 mmHg 95%
    18:00 -1°C° 0.3 mm 1 mps 642 mmHg 95%
    19:00 -1°C° 0.3 mm 1 mps 642 mmHg 95%
    20:00 -1°C° 0.3 mm 1 mps 642 mmHg 96%
    21:00 -1°C° 0.3 mm 1 mps 643 mmHg 96%
    22:00 -1°C° 0.3 mm 1 mps 643 mmHg 96%
    23:00 -2°C° 0.1 mm 1 mps 643 mmHg 95%

    Tomorrow, 17 December, Monday

    Time Temperature Precipitation Wind Pressure Humidity
    00:00 -2°C° 0.1 mm 1 mps 643 mmHg 94%
    01:00 -2°C° 0.1 mm 1 mps 643 mmHg 94%
    02:00 -3°C° 0 mm 1 mps 643 mmHg 93%
    03:00 -3°C° 0 mm 1 mps 643 mmHg 93%
    04:00 -4°C° 0 mm 1 mps 643 mmHg 92%
    05:00 -4°C° 0 mm 1 mps 643 mmHg 92%
    06:00 -4°C° 0 mm 1 mps 643 mmHg 92%
    07:00 -4°C° 0 mm 1 mps 644 mmHg 91%
    08:00 -3°C° 0 mm 1 mps 644 mmHg 90%
    09:00 -2°C° 0 mm 1 mps 645 mmHg 90%
    10:00 -2°C° 0 mm 1 mps 646 mmHg 89%
    11:00 -3°C° 0.1 mm 2 mps 646 mmHg 89%
    12:00 -2°C° 0.1 mm 2 mps 646 mmHg 89%
    13:00 -2°C° 0.1 mm 2 mps 647 mmHg 89%
    14:00 -2°C° 0.1 mm 2 mps 647 mmHg 91%
    15:00 -2°C° 0.1 mm 2 mps 648 mmHg 93%
    16:00 -2°C° 0.1 mm 2 mps 648 mmHg 94%
    17:00 -3°C° 0.1 mm 2 mps 649 mmHg 94%
    18:00 -3°C° 0.1 mm 2 mps 649 mmHg 94%
    19:00 -4°C° 0.1 mm 2 mps 650 mmHg 94%
    20:00 -4°C° 0 mm 2 mps 650 mmHg 94%
    21:00 -5°C° 0 mm 2 mps 650 mmHg 93%
    22:00 -5°C° 0 mm 2 mps 650 mmHg 93%
    23:00 -6°C° 0 mm 2 mps 650 mmHg 92%

    Day after tomorrow, 18 December, Tuesday

    Time Temperature Precipitation Wind Pressure Humidity
    00:00 -6°C° 0 mm 2 mps 650 mmHg 90%
    01:00 -7°C° 0 mm 2 mps 650 mmHg 89%
    02:00 -7°C° 0 mm 2 mps 650 mmHg 87%
    03:00 -7°C° 0 mm 2 mps 650 mmHg 85%
    04:00 -6°C° 0 mm 1 mps 649 mmHg 83%
    05:00 -6°C° 0 mm 1 mps 649 mmHg 80%
    06:00 -7°C° 0 mm 2 mps 649 mmHg 78%
    07:00 -7°C° 0 mm 2 mps 649 mmHg 75%
    08:00 -6°C° 0 mm 2 mps 649 mmHg 73%
    09:00 -5°C° 0 mm 2 mps 649 mmHg 72%
    10:00 -4°C° 0 mm 2 mps 649 mmHg 71%
    11:00 -3°C° 0 mm 2 mps 649 mmHg 71%
    12:00 0°C° 0 mm 1 mps 649 mmHg 72%
    13:00 +2°C° 0 mm 1 mps 648 mmHg 73%
    14:00 +1°C° 0 mm 1 mps 648 mmHg 73%
    15:00 0°C° 0 mm 1 mps 648 mmHg 73%
    16:00 -3°C° 0 mm 2 mps 647 mmHg 73%
    17:00 -4°C° 0 mm 2 mps 647 mmHg 71%
    18:00 -5°C° 0 mm 2 mps 647 mmHg 69%
    19:00 -6°C° 0 mm 2 mps 646 mmHg 67%
    20:00 -6°C° 0 mm 2 mps 646 mmHg 65%
    21:00 -6°C° 0 mm 2 mps 646 mmHg 64%
    22:00 -6°C° 0 mm 2 mps 646 mmHg 63%
    23:00 -5°C° 0 mm 2 mps 646 mmHg 63%

    19 December, Wednesday

    Time Temperature Precipitation Wind Pressure Humidity
    00:00 -5°C° 0 mm 2 mps 646 mmHg 63%
    01:00 -5°C° 0 mm 2 mps 645 mmHg 63%
    02:00 -5°C° 0 mm 2 mps 645 mmHg 63%
    03:00 -5°C° 0 mm 2 mps 645 mmHg 63%
    04:00 -4°C° 0 mm 2 mps 645 mmHg 63%
    05:00 -4°C° 0 mm 2 mps 645 mmHg 63%
    06:00 -4°C° 0 mm 2 mps 645 mmHg 63%
    07:00 -4°C° 0 mm 2 mps 645 mmHg 63%
    08:00 -3°C° 0 mm 2 mps 645 mmHg 64%
    09:00 -3°C° 0 mm 2 mps 645 mmHg 65%
    10:00 -2°C° 0 mm 2 mps 645 mmHg 66%
    11:00 -1°C° 0 mm 2 mps 645 mmHg 68%
    12:00 -1°C° 0 mm 2 mps 645 mmHg 70%
    13:00 +1°C° 0 mm 2 mps 644 mmHg 72%
    14:00 +1°C° 0 mm 2 mps 644 mmHg 75%
    15:00 -1°C° 0 mm 2 mps 644 mmHg 77%
    16:00 -1°C° 0 mm 2 mps 644 mmHg 80%
    17:00 -2°C° 0.3 mm 2 mps 644 mmHg 82%
    18:00 0°C° 0.3 mm 1 mps 644 mmHg 84%
    19:00 -1°C° 0.3 mm 1 mps 644 mmHg 87%
    20:00 -1°C° 0.4 mm 1 mps 644 mmHg 88%
    21:00 -1°C° 0.4 mm 1 mps 643 mmHg 89%
    22:00 -1°C° 0.4 mm 1 mps 643 mmHg 89%
    23:00 -1°C° 0.7 mm 1 mps 643 mmHg 91%

    20 December, Thursday

    Time Temperature Precipitation Wind Pressure Humidity
    00:00 -2°C° 0.7 mm 1 mps 643 mmHg 92%
    01:00 -2°C° 0.7 mm 1 mps 643 mmHg 94%
    02:00 -2°C° 1.1 mm 1 mps 643 mmHg 94%
    03:00 -2°C° 1.1 mm 1 mps 643 mmHg 95%
    04:00 -2°C° 1.1 mm 1 mps 643 mmHg 96%
    05:00 -2°C° 0.8 mm 1 mps 643 mmHg 97%
    06:00 -2°C° 0.8 mm 1 mps 643 mmHg 97%
    07:00 -2°C° 0.8 mm 1 mps 643 mmHg 97%
    08:00 -3°C° 1 mm 2 mps 644 mmHg 97%
    09:00 -3°C° 1 mm 2 mps 644 mmHg 97%
    10:00 -4°C° 1 mm 3 mps 645 mmHg 97%
    11:00 -4°C° 1 mm 3 mps 645 mmHg 97%
    12:00 -4°C° 1 mm 3 mps 645 mmHg 96%
    13:00 -4°C° 1 mm 3 mps 645 mmHg 96%
    14:00 -4°C° 0.5 mm 3 mps 645 mmHg 96%
    15:00 -4°C° 0.5 mm 3 mps 645 mmHg 95%
    16:00 -5°C° 0.5 mm 3 mps 645 mmHg 95%
    17:00 -4°C° 0.1 mm 2 mps 646 mmHg 95%
    18:00 -5°C° 0.1 mm 2 mps 646 mmHg 95%
    19:00 -5°C° 0.1 mm 2 mps 646 mmHg 95%
    20:00 -6°C° 0 mm 2 mps 646 mmHg 95%
    21:00 -6°C° 0 mm 2 mps 647 mmHg 94%
    22:00 -7°C° 0 mm 2 mps 647 mmHg 94%
    23:00 -7°C° 0 mm 2 mps 647 mmHg 92%

    21 December, Friday

    Time Temperature Precipitation Wind Pressure Humidity
    00:00 -8°C° 0 mm 2 mps 647 mmHg 91%
    01:00 -8°C° 0 mm 2 mps 647 mmHg 90%
    02:00 -8°C° 0 mm 2 mps 647 mmHg 88%
    03:00 -8°C° 0 mm 2 mps 647 mmHg 86%
    04:00 -9°C° 0 mm 2 mps 647 mmHg 85%
    05:00 -8°C° 0 mm 2 mps 647 mmHg 84%
    06:00 -8°C° 0 mm 2 mps 647 mmHg 83%
    07:00 -8°C° 0 mm 2 mps 647 mmHg 82%
    08:00 -7°C° 0 mm 2 mps 647 mmHg 81%
    09:00 -6°C° 0 mm 2 mps 647 mmHg 80%
    10:00 -5°C° 0 mm 2 mps 647 mmHg 79%
    11:00 -4°C° 0 mm 2 mps 647 mmHg 80%
    12:00 -2°C° 0 mm 2 mps 647 mmHg 81%
    13:00 +1°C° 0 mm 1 mps 646 mmHg 82%
    14:00 +1°C° 0 mm 1 mps 646 mmHg 81%
    15:00 -2°C° 0 mm 2 mps 646 mmHg 80%
    16:00 -2°C° 0 mm 2 mps 646 mmHg 79%
    17:00 -2°C° 0.3 mm 2 mps 645 mmHg 80%
    18:00 -2°C° 0.3 mm 2 mps 645 mmHg 81%
    19:00 -4°C° 0.3 mm 3 mps 645 mmHg 82%
    20:00 -2°C° 0.6 mm 3 mps 645 mmHg 84%
    21:00 -2°C° 0.6 mm 3 mps 645 mmHg 86%
    22:00 -2°C° 0.6 mm 3 mps 646 mmHg 87%
    23:00 -2°C° 0.3 mm 3 mps 646 mmHg 88%
    Show more